Time,TemperatureF,DewpointF,PressureIn,WindDirection,WindDirectionDegrees,WindSpeedMPH,WindSpeedGustMPH,Humidity,HourlyPrecipIn,Conditions,Clouds,dailyrainin,SolarRadiationWatts/m^2,SoftwareType,DateUTC
2014-08-20 00:00:00,66.4,58.2,29.88,SE,137,3.0,-999.0,75,0.00,,,0.00,1,WeatherHawk,2014-08-20 07:00:00,
2014-08-20 00:05:00,66.4,58.2,29.88,SE,139,2.0,-999.0,75,0.00,,,0.00,1,WeatherHawk,2014-08-20 07:05:00,
2014-08-20 00:10:00,66.4,58.2,29.88,SE,146,3.0,-999.0,75,0.00,,,0.00,0,WeatherHawk,2014-08-20 07:10:00,
2014-08-20 00:14:00,66.4,58.2,29.88,SE,135,3.0,-999.0,75,0.00,,,0.00,0,WeatherHawk,2014-08-20 07:14:00,
2014-08-20 00:20:00,66.4,58.2,29.89,SE,146,2.0,-999.0,75,0.00,,,0.00,0,WeatherHawk,2014-08-20 07:20:00,
2014-08-20 00:24:00,66.6,58.0,29.89,SSW,192,2.0,-999.0,74,0.00,,,0.00,0,WeatherHawk,2014-08-20 07:24:00,
2014-08-20 00:29:00,66.7,58.2,29.88,South,184,2.0,-999.0,74,0.00,,,0.00,0,WeatherHawk,2014-08-20 07:29:00,
2014-08-20 00:35:00,66.7,58.2,29.88,SSW,193,2.0,-999.0,74,0.00,,,0.00,1,WeatherHawk,2014-08-20 07:35:00,
2014-08-20 00:40:00,66.7,58.2,29.89,SSE,154,2.0,-999.0,74,0.00,,,0.00,0,WeatherHawk,2014-08-20 07:40:00,
2014-08-20 00:45:00,66.9,58.4,29.89,SW,225,2.0,-999.0,74,0.00,,,0.00,0,WeatherHawk,2014-08-20 07:45:00,
2014-08-20 00:50:00,66.9,58.0,29.89,South,177,2.0,-999.0,73,0.00,,,0.00,1,WeatherHawk,2014-08-20 07:50:00,
2014-08-20 00:55:00,66.9,58.4,29.89,South,183,2.0,-999.0,74,0.00,,,0.00,2,WeatherHawk,2014-08-20 07:55:00,
2014-08-20 01:00:00,67.1,58.1,29.88,West,267,0.0,-999.0,73,0.00,,,0.00,0,WeatherHawk,2014-08-20 08:00:00,
2014-08-20 01:05:00,67.1,58.5,29.88,WSW,246,0.0,-999.0,74,0.00,,,0.00,1,WeatherHawk,2014-08-20 08:05:00,
2014-08-20 01:10:00,67.1,58.1,29.88,SSE,166,1.0,-999.0,73,0.00,,,0.00,1,WeatherHawk,2014-08-20 08:10:00,
2014-08-20 01:15:00,67.1,58.1,29.88,South,188,1.0,-999.0,73,0.00,,,0.00,1,WeatherHawk,2014-08-20 08:15:00,
2014-08-20 01:20:00,67.1,58.1,29.88,SSE,156,0.0,-999.0,73,0.00,,,0.00,0,WeatherHawk,2014-08-20 08:20:00,
2014-08-20 01:25:00,67.3,58.3,29.88,South,186,2.0,-999.0,73,0.00,,,0.00,0,WeatherHawk,2014-08-20 08:25:00,
2014-08-20 01:30:00,67.1,58.1,29.88,SSE,150,2.0,-999.0,73,0.00,,,0.00,1,WeatherHawk,2014-08-20 08:30:00,
2014-08-20 01:35:00,67.1,58.1,29.88,SSE,149,2.0,-999.0,73,0.00,,,0.00,0,WeatherHawk,2014-08-20 08:35:00,
2014-08-20 01:40:00,67.1,58.1,29.88,SE,133,2.0,-999.0,73,0.00,,,0.00,2,WeatherHawk,2014-08-20 08:40:00,
2014-08-20 01:45:00,67.1,58.1,29.88,North,5,2.0,-999.0,73,0.00,,,0.00,0,WeatherHawk,2014-08-20 08:45:00,
2014-08-20 01:50:00,67.1,58.1,29.88,NNW,335,2.0,-999.0,73,0.00,,,0.00,0,WeatherHawk,2014-08-20 08:50:00,
2014-08-20 01:55:00,67.1,58.1,29.88,ESE,113,1.0,-999.0,73,0.00,,,0.00,1,WeatherHawk,2014-08-20 08:55:00,
2014-08-20 02:00:00,67.1,58.1,29.88,East,95,4.0,-999.0,73,0.00,,,0.00,0,WeatherHawk,2014-08-20 09:00:00,
2014-08-20 02:05:00,67.1,58.1,29.88,SE,138,2.0,-999.0,73,0.00,,,0.00,0,WeatherHawk,2014-08-20 09:05:00,
2014-08-20 02:10:00,67.1,58.5,29.88,ESE,115,2.0,-999.0,74,0.00,,,0.00,0,WeatherHawk,2014-08-20 09:10:00,
2014-08-20 02:15:00,67.1,58.1,29.88,East,101,2.0,-999.0,73,0.00,,,0.00,1,WeatherHawk,2014-08-20 09:15:00,
2014-08-20 02:20:00,67.1,58.1,29.88,NE,55,1.0,-999.0,73,0.00,,,0.00,1,WeatherHawk,2014-08-20 09:20:00,
2014-08-20 02:25:00,67.3,58.3,29.88,ENE,74,1.0,-999.0,73,0.00,,,0.00,1,WeatherHawk,2014-08-20 09:25:00,
2014-08-20 02:30:00,67.3,58.3,29.88,NE,44,2.0,-999.0,73,0.00,,,0.00,0,WeatherHawk,2014-08-20 09:30:00,
2014-08-20 02:35:00,67.1,58.1,29.88,East,101,1.0,-999.0,73,0.00,,,0.00,0,WeatherHawk,2014-08-20 09:35:00,
2014-08-20 02:40:00,67.3,58.3,29.88,NE,38,2.0,-999.0,73,0.00,,,0.00,0,WeatherHawk,2014-08-20 09:40:00,
2014-08-20 02:45:00,67.3,58.3,29.87,NW,310,0.0,-999.0,73,0.00,,,0.00,0,WeatherHawk,2014-08-20 09:45:00,
2014-08-20 02:50:00,67.3,58.3,29.87,NE,43,2.0,-999.0,73,0.00,,,0.00,0,WeatherHawk,2014-08-20 09:50:00,
2014-08-20 02:55:00,67.3,58.3,29.87,NE,47,2.0,-999.0,73,0.00,,,0.00,0,WeatherHawk,2014-08-20 09:55:00,
2014-08-20 03:00:00,67.3,58.3,29.87,NNE,23,3.0,-999.0,73,0.00,,,0.00,1,WeatherHawk,2014-08-20 10:00:00,
2014-08-20 03:05:00,67.3,58.3,29.87,NNE,20,2.0,-999.0,73,0.00,,,0.00,0,WeatherHawk,2014-08-20 10:05:00,
2014-08-20 03:10:00,67.5,58.5,29.88,ENE,60,3.0,-999.0,73,0.00,,,0.00,0,WeatherHawk,2014-08-20 10:10:00,
2014-08-20 03:15:00,67.3,58.3,29.88,North,10,1.0,-999.0,73,0.00,,,0.00,0,WeatherHawk,2014-08-20 10:15:00,
2014-08-20 03:20:00,67.5,58.5,29.88,North,354,2.0,-999.0,73,0.00,,,0.00,1,WeatherHawk,2014-08-20 10:20:00,
2014-08-20 03:25:00,67.5,58.5,29.88,NNW,329,1.0,-999.0,73,0.00,,,0.00,0,WeatherHawk,2014-08-20 10:25:00,
2014-08-20 03:30:00,67.5,58.5,29.88,NNW,344,3.0,-999.0,73,0.00,,,0.00,0,WeatherHawk,2014-08-20 10:30:00,
2014-08-20 03:35:00,67.5,58.5,29.88,NNE,22,1.0,-999.0,73,0.00,,,0.00,0,WeatherHawk,2014-08-20 10:35:00,
2014-08-20 03:40:00,67.6,58.7,29.88,NNW,346,3.0,-999.0,73,0.00,,,0.00,1,WeatherHawk,2014-08-20 10:40:00,
2014-08-20 03:45:00,67.6,58.7,29.88,NNE,20,2.0,-999.0,73,0.00,,,0.00,0,WeatherHawk,2014-08-20 10:45:00,
2014-08-20 03:50:00,67.8,58.5,29.88,NNE,23,2.0,-999.0,72,0.00,,,0.00,0,WeatherHawk,2014-08-20 10:50:00,
2014-08-20 03:55:00,67.6,58.3,29.88,NNE,30,3.0,-999.0,72,0.00,,,0.00,0,WeatherHawk,2014-08-20 10:55:00,
2014-08-20 04:00:00,67.8,58.5,29.87,NNW,348,0.0,-999.0,72,0.00,,,0.00,2,WeatherHawk,2014-08-20 11:00:00,
2014-08-20 04:05:00,67.8,58.5,29.87,SE,142,1.0,-999.0,72,0.00,,,0.00,0,WeatherHawk,2014-08-20 11:05:00,
2014-08-20 04:10:00,67.8,58.5,29.87,ENE,69,2.0,-999.0,72,0.00,,,0.00,0,WeatherHawk,2014-08-20 11:10:00,
2014-08-20 04:15:00,67.8,58.5,29.88,East,83,3.0,-999.0,72,0.00,,,0.00,0,WeatherHawk,2014-08-20 11:15:00,
2014-08-20 04:20:00,67.8,58.5,29.88,SE,145,1.0,-999.0,72,0.00,,,0.00,0,WeatherHawk,2014-08-20 11:20:00,
2014-08-20 04:25:00,67.6,58.3,29.87,ESE,119,2.0,-999.0,72,0.00,,,0.00,0,WeatherHawk,2014-08-20 11:25:00,
2014-08-20 04:30:00,67.6,58.3,29.87,SE,143,3.0,-999.0,72,0.00,,,0.00,0,WeatherHawk,2014-08-20 11:30:00,
2014-08-20 04:35:00,67.6,58.3,29.87,South,182,1.0,-999.0,72,0.00,,,0.00,0,WeatherHawk,2014-08-20 11:35:00,
2014-08-20 04:40:00,67.6,58.3,29.88,SE,137,0.0,-999.0,72,0.00,,,0.00,0,WeatherHawk,2014-08-20 11:40:00,
2014-08-20 04:45:00,67.8,58.5,29.88,East,88,1.0,-999.0,72,0.00,,,0.00,0,WeatherHawk,2014-08-20 11:45:00,
2014-08-20 04:50:00,67.6,58.3,29.88,NE,36,2.0,-999.0,72,0.00,,,0.00,1,WeatherHawk,2014-08-20 11:50:00,
2014-08-20 04:55:00,67.6,58.3,29.87,NE,43,1.0,-999.0,72,0.00,,,0.00,0,WeatherHawk,2014-08-20 11:55:00,
2014-08-20 05:00:00,67.6,58.3,29.88,NE,48,2.0,-999.0,72,0.00,,,0.00,1,WeatherHawk,2014-08-20 12:00:00,
2014-08-20 05:05:00,67.6,58.3,29.88,NE,43,1.0,-999.0,72,0.00,,,0.00,0,WeatherHawk,2014-08-20 12:05:00,
2014-08-20 05:10:00,67.6,58.3,29.88,NNE,17,1.0,-999.0,72,0.00,,,0.00,0,WeatherHawk,2014-08-20 12:10:00,
2014-08-20 05:15:00,67.6,58.3,29.88,ESE,107,2.0,-999.0,72,0.00,,,0.00,0,WeatherHawk,2014-08-20 12:15:00,
2014-08-20 05:20:00,67.6,58.3,29.88,North,355,1.0,-999.0,72,0.00,,,0.00,2,WeatherHawk,2014-08-20 12:20:00,
2014-08-20 05:25:00,67.6,58.3,29.88,North,1,2.0,-999.0,72,0.00,,,0.00,0,WeatherHawk,2014-08-20 12:25:00,
2014-08-20 05:30:00,67.6,58.7,29.88,NW,317,1.0,-999.0,73,0.00,,,0.00,0,WeatherHawk,2014-08-20 12:30:00,
2014-08-20 05:35:00,67.6,58.7,29.88,SW,217,0.0,-999.0,73,0.00,,,0.00,0,WeatherHawk,2014-08-20 12:35:00,
2014-08-20 05:40:00,67.6,58.3,29.88,ENE,67,1.0,-999.0,72,0.00,,,0.00,2,WeatherHawk,2014-08-20 12:40:00,
2014-08-20 05:45:00,67.6,58.3,29.88,ESE,104,1.0,-999.0,72,0.00,,,0.00,0,WeatherHawk,2014-08-20 12:45:00,
2014-08-20 05:50:00,67.6,58.3,29.88,SSE,150,1.0,-999.0,72,0.00,,,0.00,0,WeatherHawk,2014-08-20 12:50:00,
2014-08-20 05:55:00,67.6,58.3,29.88,NW,304,1.0,-999.0,72,0.00,,,0.00,0,WeatherHawk,2014-08-20 12:55:00,
2014-08-20 06:00:00,67.6,58.7,29.88,NE,35,0.0,-999.0,73,0.00,,,0.00,0,WeatherHawk,2014-08-20 13:00:00,
2014-08-20 06:05:00,67.5,58.5,29.88,WSW,253,1.0,-999.0,73,0.00,,,0.00,1,WeatherHawk,2014-08-20 13:05:00,
2014-08-20 06:10:00,67.3,58.3,29.88,West,276,2.0,-999.0,73,0.00,,,0.00,2,WeatherHawk,2014-08-20 13:10:00,
2014-08-20 06:15:00,67.1,58.1,29.88,West,262,1.0,-999.0,73,0.00,,,0.00,4,WeatherHawk,2014-08-20 13:15:00,
2014-08-20 06:20:00,67.1,58.5,29.89,WSW,248,1.0,-999.0,74,0.00,,,0.00,5,WeatherHawk,2014-08-20 13:20:00,
2014-08-20 06:25:00,67.1,58.5,29.89,West,280,1.0,-999.0,74,0.00,,,0.00,10,WeatherHawk,2014-08-20 13:25:00,
2014-08-20 06:30:00,66.9,58.4,29.89,West,270,2.0,-999.0,74,0.00,,,0.00,16,WeatherHawk,2014-08-20 13:30:00,
2014-08-20 06:35:00,67.1,58.5,29.89,NNW,333,2.0,-999.0,74,0.00,,,0.00,21,WeatherHawk,2014-08-20 13:35:00,
2014-08-20 06:40:00,67.3,58.7,29.89,NNW,340,2.0,-999.0,74,0.00,,,0.00,29,WeatherHawk,2014-08-20 13:40:00,
2014-08-20 06:45:00,67.3,58.7,29.89,NNW,330,2.0,-999.0,74,0.00,,,0.00,55,WeatherHawk,2014-08-20 13:45:00,
2014-08-20 06:50:00,67.5,58.9,29.89,NNW,339,2.0,-999.0,74,0.00,,,0.00,78,WeatherHawk,2014-08-20 13:50:00,
2014-08-20 06:55:00,67.6,58.7,29.89,NNW,342,3.0,-999.0,73,0.00,,,0.00,113,WeatherHawk,2014-08-20 13:55:00,
2014-08-20 07:00:00,68.0,59.0,29.89,NNW,336,3.0,-999.0,73,0.00,,,0.00,142,WeatherHawk,2014-08-20 14:00:00,
2014-08-20 07:05:00,68.2,58.8,29.90,North,6,2.0,-999.0,72,0.00,,,0.00,162,WeatherHawk,2014-08-20 14:05:00,
2014-08-20 07:10:00,68.4,58.6,29.91,North,349,1.0,-999.0,71,0.00,,,0.00,147,WeatherHawk,2014-08-20 14:10:00,
2014-08-20 07:15:00,68.7,58.9,29.90,North,356,1.0,-999.0,71,0.00,,,0.00,169,WeatherHawk,2014-08-20 14:15:00,
2014-08-20 07:20:00,68.9,58.7,29.89,NNE,16,3.0,-999.0,70,0.00,,,0.00,222,WeatherHawk,2014-08-20 14:20:00,
2014-08-20 07:30:00,69.1,58.5,29.90,NNW,333,4.0,-999.0,69,0.00,,,0.00,173,WeatherHawk,2014-08-20 14:30:00,
2014-08-20 07:35:00,68.9,58.3,29.90,NNE,19,5.0,-999.0,69,0.00,,,0.00,320,WeatherHawk,2014-08-20 14:35:00,
2014-08-20 07:40:00,69.1,58.5,29.90,NNE,18,2.0,-999.0,69,0.00,,,0.00,146,WeatherHawk,2014-08-20 14:40:00,
2014-08-20 07:45:00,69.3,58.6,29.90,NNE,18,2.0,-999.0,69,0.00,,,0.00,161,WeatherHawk,2014-08-20 14:45:00,
2014-08-20 07:50:00,69.1,58.5,29.90,NNW,340,3.0,-999.0,69,0.00,,,0.00,213,WeatherHawk,2014-08-20 14:50:00,
2014-08-20 07:55:00,69.3,58.2,29.91,NNW,337,2.0,-999.0,68,0.00,,,0.00,232,WeatherHawk,2014-08-20 14:55:00,
2014-08-20 08:00:00,69.3,58.2,29.91,ENE,77,1.0,-999.0,68,0.00,,,0.00,434,WeatherHawk,2014-08-20 15:00:00,
2014-08-20 08:05:00,69.4,58.4,29.91,ENE,65,3.0,-999.0,68,0.00,,,0.00,172,WeatherHawk,2014-08-20 15:05:00,
2014-08-20 08:10:00,69.3,58.6,29.90,ENE,74,2.0,-999.0,69,0.00,,,0.00,237,WeatherHawk,2014-08-20 15:10:00,
2014-08-20 08:15:00,69.6,58.6,29.91,South,185,1.0,-999.0,68,0.00,,,0.00,171,WeatherHawk,2014-08-20 15:15:00,
2014-08-20 08:20:00,69.6,58.6,29.91,South,180,4.0,-999.0,68,0.00,,,0.00,131,WeatherHawk,2014-08-20 15:20:00,
2014-08-20 08:25:00,69.6,58.6,29.92,SSE,167,4.0,-999.0,68,0.00,,,0.00,112,WeatherHawk,2014-08-20 15:25:00,
2014-08-20 08:30:00,69.4,58.4,29.92,SSW,201,3.0,-999.0,68,0.00,,,0.00,84,WeatherHawk,2014-08-20 15:30:00,
2014-08-20 08:35:00,69.4,58.4,29.92,WSW,254,3.0,-999.0,68,0.00,,,0.00,72,WeatherHawk,2014-08-20 15:35:00,
2014-08-20 08:40:00,69.4,58.4,29.92,WNW,303,1.0,-999.0,68,0.00,,,0.00,69,WeatherHawk,2014-08-20 15:40:00,
2014-08-20 08:45:00,69.4,58.0,29.91,NNW,331,3.0,-999.0,67,0.00,,,0.00,69,WeatherHawk,2014-08-20 15:45:00,
2014-08-20 08:50:00,69.4,58.4,29.91,East,83,2.0,-999.0,68,0.00,,,0.00,84,WeatherHawk,2014-08-20 15:50:00,
2014-08-20 08:55:00,69.6,58.2,29.91,NE,54,4.0,-999.0,67,0.00,,,0.00,92,WeatherHawk,2014-08-20 15:55:00,
2014-08-20 09:00:00,69.4,58.4,29.92,NE,43,2.0,-999.0,68,0.00,,,0.00,113,WeatherHawk,2014-08-20 16:00:00,
2014-08-20 09:05:00,69.4,58.4,29.92,ESE,103,3.0,-999.0,68,0.00,,,0.00,103,WeatherHawk,2014-08-20 16:05:00,
2014-08-20 09:10:00,69.6,58.6,29.92,SE,132,1.0,-999.0,68,0.00,,,0.00,111,WeatherHawk,2014-08-20 16:10:00,
2014-08-20 09:15:00,69.8,58.3,29.92,South,171,4.0,-999.0,67,0.00,,,0.00,129,WeatherHawk,2014-08-20 16:15:00,
2014-08-20 09:20:00,69.6,58.2,29.93,SE,140,4.0,-999.0,67,0.00,,,0.00,568,WeatherHawk,2014-08-20 16:20:00,
2014-08-20 09:25:00,70.3,58.4,29.93,South,170,4.0,-999.0,66,0.00,,,0.00,457,WeatherHawk,2014-08-20 16:25:00,
2014-08-20 09:30:00,70.5,58.2,29.92,SSE,156,2.0,-999.0,65,0.00,,,0.00,315,WeatherHawk,2014-08-20 16:30:00,
2014-08-20 09:35:00,70.9,58.5,29.92,SSW,213,1.0,-999.0,65,0.00,,,0.00,511,WeatherHawk,2014-08-20 16:35:00,
2014-08-20 09:40:00,71.1,58.3,29.93,SSE,161,1.0,-999.0,64,0.00,,,0.00,224,WeatherHawk,2014-08-20 16:40:00,
2014-08-20 09:45:00,71.1,57.8,29.93,SSE,168,3.0,-999.0,63,0.00,,,0.00,143,WeatherHawk,2014-08-20 16:45:00,
2014-08-20 09:50:00,71.2,58.4,29.92,SSW,205,2.0,-999.0,64,0.00,,,0.00,237,WeatherHawk,2014-08-20 16:50:00,
2014-08-20 09:55:00,71.6,58.3,29.93,WSW,246,3.0,-999.0,63,0.00,,,0.00,273,WeatherHawk,2014-08-20 16:55:00,
2014-08-20 10:00:00,71.2,58.4,29.93,SSE,151,4.0,-999.0,64,0.00,,,0.00,221,WeatherHawk,2014-08-20 17:00:00,
2014-08-20 10:05:00,71.1,58.7,29.93,South,171,3.0,-999.0,65,0.00,,,0.00,185,WeatherHawk,2014-08-20 17:05:00,
2014-08-20 10:10:00,71.1,58.3,29.93,South,179,2.0,-999.0,64,0.00,,,0.00,225,WeatherHawk,2014-08-20 17:10:00,
2014-08-20 10:15:00,71.2,58.9,29.93,East,89,3.0,-999.0,65,0.00,,,0.00,205,WeatherHawk,2014-08-20 17:15:00,
2014-08-20 10:20:00,71.1,58.7,29.93,ESE,104,3.0,-999.0,65,0.00,,,0.00,212,WeatherHawk,2014-08-20 17:20:00,
2014-08-20 10:25:00,71.1,59.1,29.93,South,170,7.0,-999.0,66,0.00,,,0.00,207,WeatherHawk,2014-08-20 17:25:00,
2014-08-20 10:30:00,71.1,59.5,29.93,South,169,7.0,-999.0,67,0.00,,,0.00,179,WeatherHawk,2014-08-20 17:30:00,
2014-08-20 10:35:00,70.5,59.0,29.93,SSW,199,6.0,-999.0,67,0.00,,,0.00,206,WeatherHawk,2014-08-20 17:35:00,
2014-08-20 10:40:00,70.5,59.0,29.94,SSE,151,6.0,-999.0,67,0.00,,,0.00,791,WeatherHawk,2014-08-20 17:40:00,
2014-08-20 10:45:00,70.7,58.8,29.93,SSE,147,7.0,-999.0,66,0.00,,,0.00,669,WeatherHawk,2014-08-20 17:45:00,
2014-08-20 10:50:00,70.9,58.9,29.93,South,172,5.0,-999.0,66,0.00,,,0.00,942,WeatherHawk,2014-08-20 17:50:00,
2014-08-20 10:55:00,71.4,58.6,29.94,SSE,150,6.0,-999.0,64,0.00,,,0.00,868,WeatherHawk,2014-08-20 17:55:00,
2014-08-20 11:00:00,71.4,58.2,29.93,SSE,163,3.0,-999.0,63,0.00,,,0.00,1071,WeatherHawk,2014-08-20 18:00:00,
2014-08-20 11:05:00,72.0,58.2,29.93,SE,127,8.0,-999.0,62,0.00,,,0.00,1120,WeatherHawk,2014-08-20 18:05:00,
2014-08-20 11:10:00,72.0,58.2,29.93,East,89,4.0,-999.0,62,0.00,,,0.00,829,WeatherHawk,2014-08-20 18:10:00,
2014-08-20 11:15:00,72.5,57.8,29.94,South,172,3.0,-999.0,60,0.00,,,0.00,219,WeatherHawk,2014-08-20 18:15:00,
2014-08-20 11:20:00,72.5,58.3,29.93,South,189,6.0,-999.0,61,0.00,,,0.00,153,WeatherHawk,2014-08-20 18:20:00,
2014-08-20 11:25:00,73.2,58.5,29.93,SE,134,3.0,-999.0,60,0.00,,,0.00,169,WeatherHawk,2014-08-20 18:25:00,
2014-08-20 11:30:00,73.0,58.3,29.93,South,175,9.0,-999.0,60,0.00,,,0.00,186,WeatherHawk,2014-08-20 18:30:00,
2014-08-20 11:35:00,72.3,58.6,29.93,SSE,154,7.0,-999.0,62,0.00,,,0.00,187,WeatherHawk,2014-08-20 18:35:00,
2014-08-20 11:40:00,72.0,59.5,29.93,SE,140,8.0,-999.0,65,0.00,,,0.00,195,WeatherHawk,2014-08-20 18:40:00,
2014-08-20 11:45:00,71.1,60.0,29.93,SE,132,7.0,-999.0,68,0.00,,,0.00,171,WeatherHawk,2014-08-20 18:45:00,
2014-08-20 11:50:00,70.3,59.7,29.94,SE,146,6.0,-999.0,69,0.00,,,0.00,197,WeatherHawk,2014-08-20 18:50:00,
2014-08-20 11:55:00,70.3,59.7,29.93,South,179,3.0,-999.0,69,0.00,,,0.00,307,WeatherHawk,2014-08-20 18:55:00,
2014-08-20 12:00:00,70.9,60.2,29.93,SE,139,7.0,-999.0,69,0.00,,,0.00,1178,WeatherHawk,2014-08-20 19:00:00,
2014-08-20 12:05:00,71.1,59.1,29.93,SE,144,10.0,-999.0,66,0.00,,,0.00,1115,WeatherHawk,2014-08-20 19:05:00,
2014-08-20 12:10:00,72.5,60.5,29.93,ESE,114,2.0,-999.0,66,0.00,,,0.00,1075,WeatherHawk,2014-08-20 19:10:00,
2014-08-20 12:15:00,72.9,59.5,29.93,East,100,5.0,-999.0,63,0.00,,,0.00,558,WeatherHawk,2014-08-20 19:15:00,
2014-08-20 12:20:00,73.8,59.5,29.93,ESE,110,4.0,-999.0,61,0.00,,,0.00,1240,WeatherHawk,2014-08-20 19:20:00,
2014-08-20 12:25:00,73.8,59.0,29.93,SSE,148,5.0,-999.0,60,0.00,,,0.00,1209,WeatherHawk,2014-08-20 19:25:00,
2014-08-20 12:30:00,73.6,58.4,29.93,ESE,104,9.0,-999.0,59,0.00,,,0.00,1181,WeatherHawk,2014-08-20 19:30:00,
2014-08-20 12:35:00,73.9,58.7,29.93,SSE,155,6.0,-999.0,59,0.00,,,0.00,1150,WeatherHawk,2014-08-20 19:35:00,
2014-08-20 12:40:00,73.9,58.2,29.93,ENE,74,2.0,-999.0,58,0.00,,,0.00,672,WeatherHawk,2014-08-20 19:40:00,
2014-08-20 12:45:00,74.3,58.1,29.92,South,186,6.0,-999.0,57,0.00,,,0.00,1116,WeatherHawk,2014-08-20 19:45:00,
2014-08-20 12:50:00,75.2,58.4,29.92,ESE,117,8.0,-999.0,56,0.00,,,0.00,987,WeatherHawk,2014-08-20 19:50:00,
2014-08-20 12:55:00,75.0,58.2,29.92,SE,129,3.0,-999.0,56,0.00,,,0.00,1211,WeatherHawk,2014-08-20 19:55:00,
2014-08-20 13:00:00,75.7,58.4,29.92,East,82,4.0,-999.0,55,0.00,,,0.00,407,WeatherHawk,2014-08-20 20:00:00,
2014-08-20 13:05:00,75.4,58.1,29.92,SSW,207,5.0,-999.0,55,0.00,,,0.00,562,WeatherHawk,2014-08-20 20:05:00,
2014-08-20 13:09:00,75.4,58.1,29.92,ESE,119,6.0,-999.0,55,0.00,,,0.00,494,WeatherHawk,2014-08-20 20:09:00,
2014-08-20 13:15:00,75.0,57.7,29.91,South,177,9.0,-999.0,55,0.00,,,0.00,440,WeatherHawk,2014-08-20 20:15:00,
2014-08-20 13:24:00,74.5,57.7,29.91,South,180,6.0,-999.0,56,0.00,,,0.00,330,WeatherHawk,2014-08-20 20:24:00,
2014-08-20 13:29:00,75.0,58.2,29.91,ESE,111,5.0,-999.0,56,0.00,,,0.00,1241,WeatherHawk,2014-08-20 20:29:00,
2014-08-20 13:35:00,75.4,58.1,29.91,SSW,196,4.0,-999.0,55,0.00,,,0.00,1162,WeatherHawk,2014-08-20 20:35:00,
2014-08-20 13:40:00,75.9,58.6,29.90,East,96,5.0,-999.0,55,0.00,,,0.00,992,WeatherHawk,2014-08-20 20:40:00,
2014-08-20 13:45:00,75.9,58.1,29.91,SSW,199,3.0,-999.0,54,0.00,,,0.00,1037,WeatherHawk,2014-08-20 20:45:00,
2014-08-20 13:50:00,76.6,58.2,29.91,South,170,7.0,-999.0,53,0.00,,,0.00,1043,WeatherHawk,2014-08-20 20:50:00,
2014-08-20 13:55:00,77.2,58.2,29.90,SE,124,8.0,-999.0,52,0.00,,,0.00,1074,WeatherHawk,2014-08-20 20:55:00,
2014-08-20 14:00:00,77.4,57.8,29.90,SE,133,6.0,-999.0,51,0.00,,,0.00,958,WeatherHawk,2014-08-20 21:00:00,
2014-08-20 14:05:00,75.9,57.5,29.90,South,181,6.0,-999.0,53,0.00,,,0.00,301,WeatherHawk,2014-08-20 21:05:00,
2014-08-20 14:10:00,76.8,57.8,29.90,SSW,197,7.0,-999.0,52,0.00,,,0.00,350,WeatherHawk,2014-08-20 21:10:00,
2014-08-20 14:15:00,76.5,58.6,29.90,SSW,197,5.0,-999.0,54,0.00,,,0.00,557,WeatherHawk,2014-08-20 21:15:00,
2014-08-20 14:20:00,75.9,58.1,29.89,SE,125,6.0,-999.0,54,0.00,,,0.00,1175,WeatherHawk,2014-08-20 21:20:00,
2014-08-20 14:25:00,76.1,58.2,29.89,SSE,148,3.0,-999.0,54,0.00,,,0.00,673,WeatherHawk,2014-08-20 21:25:00,
2014-08-20 14:30:00,75.9,58.6,29.89,SSE,155,10.0,-999.0,55,0.00,,,0.00,1060,WeatherHawk,2014-08-20 21:30:00,
2014-08-20 14:35:00,77.2,58.7,29.89,ESE,111,5.0,-999.0,53,0.00,,,0.00,1015,WeatherHawk,2014-08-20 21:35:00,
2014-08-20 14:40:00,76.8,58.4,29.89,ESE,123,9.0,-999.0,53,0.00,,,0.00,1003,WeatherHawk,2014-08-20 21:40:00,
2014-08-20 14:45:00,76.5,58.6,29.89,South,177,7.0,-999.0,54,0.00,,,0.00,532,WeatherHawk,2014-08-20 21:45:00,
2014-08-20 14:50:00,77.4,58.3,29.89,SSE,164,8.0,-999.0,52,0.00,,,0.00,955,WeatherHawk,2014-08-20 21:50:00,